Showing default

AEROCUBE 6B, 40046

Orbit data source: Space-Track

AEROCUBE 6B, 40046 is a payload satellite owned by AERO (US) in SSO that was launched on Thu, 19 Jun 2014 UTC via a DNEPR launch vehicle from the Orenburg, Russia (OREN). Payloads include a variety of satellites, spacecraft, and rockets equipped with specific instruments for various scientific and technological missions. These include communications satellites like Starlink; space stations such as the ISS; scientific satellites like the Hubble; Earth observation satellites from companies like Planet Labs, Umbra, and HawkEye 360; GPS; miniature CubeSats for education and research; and military/defense satellites.

Loading next visibility...
AEROCUBE 6B details
Identifier
40046, 2014-033AN
Orbit
SSO
Last TLE update9 hours ago
Origin
Flag of USAERO (US)
ManufacturerAERO
MissionOperational Defense Technology
Bus & MotorCUBESAT 0.5U, Unknown motor
Mass~0.5 kg wet, ~0.5 kg dry
Launch date (UTC)
2014-06-19 (11 years ago)
Launch vehicle
DNEPR
Launch site
Orenburg, Russia (OREN)
Object type
Payload
Rocket body
Debris
Shape & HBRBox + 2 Pan, 0.1 m
Radar Cross Section0.010 m², Small (<0.1 m²)

Expand to show TLE details & history

TLE from 9 hours ago
0 AEROCUBE 6B
1 40046U 14033AN  24361.24616544  .00010947  00000-0  11312-2 0  9994
2 40046  97.6734 166.8420 0044877   4.3760 355.7841 14.89544140566380
Epoch: 2024-12-26T05:54Z
Definitive object data (Epoch: 2024-12-26T05:54:28.694Z)
Latitude-0.00001°
Longitude-17.00587°
Altitude571.166 km
Speed7.592 km/s
True Right ascension11h 07m 22s
True Declination0° 00' 00"
Sunlit
Object was in daylight at TLE epoch
Visualization TLE readout
Latitude34.85839°
Longitude168.70167°
Altitude628.562 km
Speed7.534 km/s
Apparent Right ascension00h 38m 18s
Apparent Declination0° 29' 28"
Sunlit
Object is in daylight
Visualization observer readout
Local Sidereal Time13:58:48
Azimuth30° NE
Elevation-46.522°
Doppler factor1
Orbital elements
Apogee altitude627.676 km
Perigee altitude565.077 km
Semi-major axis6,974.514 km
Eccentricity0.0044877
Inclination97.6734°
RAAN166.842°
Arg. of periapsis4.376°
True anomaly355.74608°
Mean anomaly355.7841°
Eccentric anomaly355.76511°
Mean motion3.72625 °/min
BSTAR0.0011312
Orbital period96.61 mins
Loading maneuver chart data...
Loading historical data...
Loading historical data...
Loading historical data...
Loading historical data...
Loading historical data...
Loading historical data...
Loading historical data...

AEROCUBE 6B Visibility forecast

Observer location: undefined°, undefined

Span
Click to sort rows by Start time (UTC) header in descending order
Start Az.
Max El. time (UTC)
Max El. Az.
Max El.
End time (UTC)
End Az.
8 mins2024-12-27 00:11:56.319Z10.443° NNE2024-12-27 00:15:56.319Z267.566° W44.786°2024-12-27 00:19:56.319Z196.236° SSW
6 mins2024-12-27 11:03:56.319Z149.243° SSE2024-12-27 11:06:56.319Z46.946° ENE39.851°2024-12-27 11:09:56.319Z357.21° N
|